User: anonymous   Login
Location: Unspecified
(0.0000°N, 0.0000°E)
Time: 18:55:14
(UTC+02:00)
Language:

ARIANE 5 R/B - Orbit

View from above orbital plane
View from above orbital plane
View from above satellite
View from above satellite

Ground track
Ground track

The orbit data is extracted from the following two-line orbital elements,

1 28379U 04027B   16146.00220064 -.00000195  00000-0 -42499-3 0  9992
2 28379   6.8864  94.9905 7298795 179.3671 344.7946  2.07924403 90063
Epoch (UTC): 25 May 2016 00:03:10
Eccentricity: 0.7298795
inclination: 6.8864°
perigee height: 626 km
apogee height: 38477 km
right ascension of ascending node: 94.9905°
argument of perigee: 179.3671°
revolutions per day: 2.07924403
mean anomaly at epoch: 344.7946°
orbit number at epoch: 9006

The dashed part of the orbit path shows where the satellite is in the earth's shadow,  

DLR